EW1902 Weather Reports


time (UTC)temp
C
wind
direction
speed
KPH
gust
KPH
rain 1hr
cm
rain 24hr
cm
rain mn
cm
humidity
%
barometer
mb
20260509024053 11 197 3.2 4.8 0.00 0.05 0.05 88 1010.1
20260509023553 11 197 3.2 4.8 0.00 0.05 0.05 87 1010.0
20260509023054 11 197 1.6 4.8 0.00 0.05 0.05 87 1010.0
20260509022552 12 198 1.6 4.8 0.00 0.05 0.05 87 1010.1
20260509022053 12 202 0.0 3.2 0.00 0.05 0.05 87 1010.1
20260509021553 12 202 1.6 3.2 0.00 0.05 0.05 86 1010.1
20260509021053 12 202 1.6 4.8 0.00 0.05 0.05 86 1010.1
20260509020554 12 202 1.6 4.8 0.00 0.08 0.05 86 1010.1
20260509020053 12 202 3.2 4.8 0.00 0.13 0.05 86 1010.0
20260509015553 12 202 3.2 4.8 0.00 0.18 0.05 86 1010.1
20260509015054 12 202 3.2 4.8 0.00 0.25 0.05 86 1010.0
20260509014552 12 203 4.8 6.4 0.00 0.30 0.05 86 1010.0
20260509014053 12 195 4.8 8.0 0.00 0.33 0.05 86 1009.9
20260509013815 12 203 6.4 8.0 0.00 0.38 0.05 86 1009.9
20260509013311 12 202 6.4 8.0 0.00 0.43 0.05 85 1009.8
20260509012553 13 203 6.4 11.3 0.00 0.43 0.05 85 1009.8
20260509012052 13 203 6.4 11.3 0.00 0.43 0.05 85 1009.8
20260509011553 13 208 6.4 9.7 0.00 0.43 0.05 85 1009.8
20260509011053 13 200 8.0 11.3 0.00 0.43 0.05 85 1009.8
20260509010552 12 198 8.0 11.3 0.00 0.43 0.05 85 1009.7
20260509010053 12 202 8.0 11.3 0.00 0.43 0.05 84 1009.7
20260509005553 13 207 8.0 11.3 0.00 0.43 0.05 84 1009.7
20260509005054 13 199 8.0 11.3 0.00 0.43 0.05 83 1009.6
20260509004813 13 217 9.7 11.3 0.00 0.43 0.05 83 1009.6
20260509004054 13 217 9.7 16.1 0.00 0.43 0.05 83 1009.6
20260509003554 13 226 9.7 16.1 0.00 0.43 0.05 82 1009.4
20260509003048 13 211 9.7 16.1 0.00 0.43 0.05 82 1009.4
20260509002542 13 225 9.7 16.1 0.00 0.43 0.05 82 1009.6
20260509002036 13 243 9.7 17.7 0.00 0.43 0.05 82 1009.4
20260509001534 13 218 11.3 17.7 0.00 0.43 0.05 82 1009.6
20260509001023 13 229 9.7 17.7 0.00 0.43 0.05 82 1009.6
20260509000517 14 213 11.3 22.5 0.00 0.43 0.05 82 1009.7
20260509000011 14 215 11.3 22.5 0.00 0.43 0.05 82 1009.6
20260508235507 14 217 12.9 19.3 0.00 0.43 0.05 82 1009.6
20260508235227 14 189 12.9 20.9 0.00 0.43 0.05 82 1009.6
20260508234734 14 218 12.9 20.9 0.00 0.43 0.05 83 1009.6
20260508234007 14 235 14.5 20.9 0.00 0.43 0.05 83 1009.6
20260508233507 14 225 14.5 20.9 0.00 0.43 0.05 82 1009.4
20260508233006 14 216 14.5 24.1 0.00 0.43 0.05 83 1009.7
20260508232506 14 217 12.9 24.1 0.00 0.43 0.05 83 1009.6
20260508232006 14 207 11.3 17.7 0.00 0.43 0.05 82 1009.6
20260508231507 14 213 12.9 20.9 0.00 0.43 0.05 82 1009.7
20260508231006 14 228 11.3 20.9 0.00 0.43 0.05 82 1009.7
20260508230506 15 218 12.9 22.5 0.00 0.43 0.05 82 1009.7
20260508230006 15 210 14.5 22.5 0.00 0.43 0.05 82 1009.8
20260508225504 15 200 14.5 25.7 0.00 0.43 0.05 83 1009.8
20260508225228 14 200 14.5 25.7 0.00 0.43 0.05 82 1009.8
20260508224506 14 223 19.3 29.0 0.00 0.43 0.05 81 1009.9
20260508224006 15 213 17.7 29.0 0.00 0.43 0.05 81 1009.9
20260508223504 15 204 16.1 24.1 0.00 0.43 0.05 80 1009.9
20260508222958 15 223 16.1 25.7 0.00 0.43 0.05 80 1009.8
20260508222718 15 217 14.5 25.7 0.00 0.43 0.05 79 1009.8
20260508221946 14 211 14.5 22.5 0.00 0.43 0.05 79 1009.9
20260508221441 14 199 14.5 22.5 0.00 0.43 0.05 79 1009.9
20260508220935 14 241 14.5 24.1 0.00 0.43 0.05 79 1009.9
20260508220428 14 252 12.9 24.1 0.00 0.43 0.05 76 1009.9
20260508215922 15 221 11.3 20.9 0.00 0.43 0.05 77 1010.0
20260508215416 15 261 14.5 25.7 0.00 0.43 0.05 76 1009.9
20260508214910 15 227 14.5 25.7 0.00 0.43 0.05 76 1010.0
20260508214404 15 243 12.9 22.5 0.00 0.43 0.05 77 1009.9
20260508213858 15 279 12.9 22.5 0.00 0.43 0.05 77 1009.9
20260508213352 15 255 12.9 25.7 0.00 0.43 0.05 78 1009.9
20260508212846 15 202 14.5 25.7 0.00 0.43 0.05 78 1009.9
20260508212340 15 246 16.1 29.0 0.00 0.43 0.05 77 1010.0
20260508211835 15 235 14.5 29.0 0.00 0.43 0.05 77 1010.0
20260508211328 15 232 14.5 25.7 0.00 0.43 0.05 77 1009.9
20260508210822 15 209 14.5 25.7 0.00 0.43 0.05 77 1009.9
20260508210316 14 229 8.0 16.1 0.00 0.43 0.05 78 1010.0
20260508205811 14 225 8.0 16.1 0.00 0.43 0.05 77 1010.1
20260508205747 14 229 11.3 19.3 0.00 0.43 0.05 77 1010.2
20260508204759 14 220 11.3 22.5 0.00 0.43 0.05 77 1010.2
20260508204252 14 210 11.3 22.5 0.00 0.43 0.05 79 1010.2
20260508203746 14 211 9.7 16.1 0.00 0.43 0.05 81 1010.3
20260508203240 13 210 9.7 14.5 0.00 0.43 0.05 81 1010.3
20260508202734 14 202 11.3 20.9 0.00 0.43 0.05 81 1010.4
20260508202452 14 209 14.5 27.4 0.00 0.43 0.05 80 1010.5
20260508201949 14 207 16.1 27.4 0.00 0.43 0.05 79 1010.6
20260508201217 15 227 11.3 22.5 0.00 0.43 0.05 76 1010.6
20260508200711 15 181 9.7 14.5 0.00 0.43 0.05 77 1010.8
20260508200204 15 198 9.7 14.5 0.00 0.43 0.05 76 1010.8
20260508195658 15 190 6.4 11.3 0.00 0.43 0.05 76 1010.7
20260508195153 14 193 4.8 9.7 0.00 0.43 0.05 76 1010.8
20260508194904 14 220 6.4 11.3 0.00 0.43 0.05 74 1011.0
20260508194406 14 227 4.8 11.3 0.00 0.43 0.05 75 1011.0
20260508193634 15 200 3.2 9.7 0.00 0.43 0.05 74 1011.1
20260508193128 15 224 1.6 4.8 0.00 0.43 0.05 74 1011.2
20260508192622 14 236 1.6 3.2 0.00 0.43 0.05 75 1011.2
20260508192117 14 236 1.6 6.4 0.00 0.43 0.05 76 1011.3
20260508191609 14 236 3.2 6.4 0.00 0.43 0.05 76 1011.4
20260508191104 14 247 1.6 6.4 0.00 0.43 0.05 76 1011.5
20260508190558 13 202 1.6 4.8 0.00 0.43 0.05 77 1011.6
20260508190052 13 202 3.2 4.8 0.00 0.43 0.05 77 1011.7
20260508185811 13 202 3.2 8.0 0.00 0.43 0.05 79 1011.7
20260508185258 13 209 4.8 8.0 0.00 0.43 0.05 78 1011.6
20260508184534 13 232 4.8 9.7 0.00 0.43 0.05 79 1011.8
20260508184249 13 208 4.8 9.7 0.00 0.43 0.05 79 1012.0
20260508183522 13 223 8.0 12.9 0.00 0.43 0.05 80 1012.0
20260508183016 13 224 9.7 12.9 0.00 0.43 0.05 80 1012.0
20260508182510 13 179 8.0 14.5 0.00 0.43 0.05 80 1012.2
20260508182004 13 209 8.0 16.1 0.00 0.43 0.05 79 1012.3
20260508181458 13 174 9.7 16.1 0.00 0.43 0.05 80 1012.3
20260508180958 13 217 8.0 14.5 0.00 0.43 0.05 79 1012.4
20260508180458 13 205 8.0 14.5 0.00 0.43 0.05 80 1012.3
20260508175958 13 195 8.0 14.5 0.00 0.43 0.05 80 1012.3
20260508175458 13 221 11.3 16.1 0.00 0.43 0.05 79 1012.4
20260508175222 13 195 11.3 17.7 0.00 0.43 0.05 80 1012.4
20260508174458 13 205 9.7 17.7 0.00 0.43 0.05 81 1012.4
20260508174000 13 204 9.7 14.5 0.00 0.43 0.05 80 1012.5
20260508173459 13 217 8.0 12.9 0.00 0.43 0.05 80 1012.5
20260508172957 13 194 8.0 11.3 0.00 0.43 0.05 81 1012.7
20260508172455 13 202 8.0 12.9 0.00 0.43 0.05 82 1012.8
20260508171952 12 202 8.0 12.9 0.00 0.43 0.05 82 1012.8
20260508171452 12 191 8.0 12.9 0.00 0.43 0.05 82 1012.8
20260508170953 12 209 8.0 14.5 0.00 0.43 0.05 83 1012.9
20260508170451 12 186 8.0 14.5 0.00 0.43 0.05 84 1013.0
20260508170210 12 198 8.0 12.9 0.00 0.43 0.05 85 1013.1
20260508165451 12 184 6.4 12.9 0.00 0.43 0.05 84 1013.3
20260508164953 12 219 4.8 9.7 0.00 0.43 0.05 86 1013.3
20260508164446 11 217 4.8 8.0 0.03 0.43 0.05 86 1013.4
20260508163941 11 213 4.8 8.0 0.03 0.43 0.05 86 1013.6
20260508163433 11 213 6.4 8.0 0.03 0.43 0.05 86 1013.6
20260508162932 11 185 6.4 9.7 0.03 0.43 0.05 86 1013.6
20260508162433 11 205 6.4 9.7 0.03 0.43 0.05 86 1013.7
20260508161929 11 192 6.4 11.3 0.03 0.43 0.05 86 1013.8
20260508161430 11 217 6.4 11.3 0.03 0.43 0.05 86 1014.0
20260508160931 11 213 6.4 9.7 0.03 0.43 0.05 86 1013.8
20260508160428 11 221 6.4 11.3 0.03 0.43 0.05 85 1013.9
20260508155928 11 231 6.4 11.3 0.03 0.43 0.05 85 1013.9
20260508155429 11 207 8.0 14.5 0.03 0.43 0.05 85 1013.8
20260508154928 11 213 6.4 14.5 0.00 0.41 0.05 85 1013.8
20260508154427 11 233 8.0 16.1 0.00 0.41 0.03 85 1013.7
20260508154416 11 225 11.3 17.7 0.00 0.41 0.03 85 1013.6
20260508153424 11 202 11.3 17.7 0.00 0.41 0.03 85 1013.8
20260508152924 11 200 11.3 19.3 0.00 0.41 0.03 86 1013.5
20260508152423 11 219 11.3 19.3 0.00 0.41 0.03 86 1013.7
20260508152157 11 221 9.7 16.1 0.00 0.41 0.03 87 1013.7
20260508151424 11 227 9.7 16.1 0.00 0.41 0.03 87 1013.7
20260508150923 11 217 8.0 14.5 0.00 0.41 0.03 88 1013.7
20260508150423 11 220 6.4 12.9 0.03 0.41 0.03 88 1013.8
20260508145924 11 209 8.0 12.9 0.03 0.41 0.03 89 1013.9
20260508145425 11 220 6.4 12.9 0.03 0.41 0.03 90 1013.8
20260508145414 10 223 8.0 14.5 0.03 0.41 0.03 90 1013.8
20260508144654 10 228 8.0 14.5 0.03 0.41 0.03 90 1013.9
20260508144149 10 234 6.4 12.9 0.03 0.41 0.03 90 1013.8
20260508143423 10 202 6.4 11.3 0.03 0.41 0.03 90 1013.8
20260508142923 10 223 4.8 9.7 0.03 0.41 0.03 90 1014.0
20260508142423 10 225 6.4 11.3 0.03 0.41 0.03 90 1014.1
20260508142148 10 226 6.4 14.5 0.03 0.41 0.03 89 1014.0
20260508141425 10 202 8.0 14.5 0.03 0.41 0.03 89 1014.3
20260508140924 10 219 9.7 16.1 0.03 0.41 0.03 88 1014.4
20260508140649 10 223 9.7 16.1 0.00 0.38 0.03 88 1014.4
20260508135924 10 226 8.0 14.5 0.00 0.38 0.00 88 1014.5
20260508135425 10 234 4.8 11.3 0.00 0.38 0.00 87 1014.5
20260508135407 10 229 4.8 9.7 0.00 0.38 0.00 87 1014.4
20260508134421 10 215 4.8 9.7 0.00 0.38 0.00 87 1014.4
20260508133920 10 213 6.4 11.3 0.00 0.38 0.00 87 1014.4
20260508133421 10 217 6.4 11.3 0.00 0.38 0.00 86 1014.3
20260508132919 10 219 6.4 12.9 0.00 0.38 0.00 86 1014.1
20260508132421 10 225 8.0 12.9 0.00 0.38 0.00 86 1014.0
20260508131919 10 229 6.4 12.9 0.00 0.38 0.00 86 1014.0
20260508131418 10 213 6.4 11.3 0.00 0.38 0.00 86 1014.2
20260508130916 10 209 6.4 11.3 0.00 0.38 0.00 85 1014.3
20260508130856 10 213 6.4 11.3 0.00 0.38 0.00 85 1014.3
20260508125917 10 234 4.8 9.7 0.00 0.38 0.00 85 1014.2
20260508125416 10 232 6.4 9.7 0.00 0.38 0.00 85 1014.0
20260508124917 10 216 6.4 9.7 0.00 0.38 0.00 85 1013.9
20260508124411 10 211 6.4 9.7 0.00 0.38 0.00 85 1014.0
20260508123905 10 227 4.8 8.0 0.00 0.38 0.00 85 1014.1
20260508123404 10 207 4.8 8.0 0.00 0.38 0.00 85 1014.2
20260508122853 10 215 4.8 9.7 0.00 0.38 0.00 85 1014.1
20260508122608 10 233 4.8 9.7 0.00 0.38 0.00 85 1014.1
20260508121842 10 234 4.8 9.7 0.00 0.38 0.00 85 1014.1
20260508121335 10 234 3.2 8.0 0.00 0.38 0.00 85 1014.0
20260508120830 10 241 3.2 8.0 0.00 0.38 0.00 85 1014.0
20260508120323 9 239 3.2 8.0 0.00 0.38 0.00 85 1013.9
20260508115816 9 234 3.2 8.0 0.00 0.38 0.00 85 1013.8
20260508115312 9 249 4.8 8.0 0.00 0.38 0.00 85 1013.9
20260508114805 9 242 3.2 8.0 0.00 0.38 0.00 86 1013.8
20260508114259 9 283 1.6 6.4 0.00 0.38 0.00 86 1013.8
20260508113753 8 254 1.6 8.0 0.00 0.38 0.00 86 1013.8
20260508113247 8 254 3.2 8.0 0.00 0.38 0.00 86 1013.7
20260508113009 8 255 1.6 6.4 0.00 0.38 0.00 86 1013.7
20260508112234 8 242 1.6 6.4 0.00 0.38 0.00 87 1013.8
20260508111729 8 251 1.6 6.4 0.00 0.38 0.00 87 1013.8
20260508111223 8 240 1.6 4.8 0.00 0.38 0.00 87 1013.7
20260508110718 8 222 1.6 4.8 0.00 0.38 0.00 87 1013.6
20260508110212 7 232 3.2 8.0 0.00 0.38 0.00 86 1013.7
20260508105933 7 250 3.2 8.0 0.00 0.38 0.00 86 1013.7
20260508105158 7 239 3.2 8.0 0.00 0.38 0.00 86 1013.7
20260508104654 7 229 3.2 8.0 0.00 0.38 0.00 86 1013.6
20260508104147 7 224 4.8 12.9 0.00 0.38 0.00 86 1013.4
20260508103641 7 223 4.8 12.9 0.00 0.38 0.00 87 1013.4
20260508103400 7 232 4.8 8.0 0.00 0.38 0.00 87 1013.5
20260508102629 7 223 4.8 9.7 0.00 0.38 0.00 86 1013.5
20260508102123 8 238 4.8 11.3 0.00 0.38 0.00 87 1013.5
20260508101617 8 223 4.8 11.3 0.00 0.38 0.00 87 1013.3
20260508101111 7 221 4.8 6.4 0.00 0.38 0.00 87 1013.3
20260508100605 8 216 4.8 8.0 0.00 0.38 0.00 87 1013.1
20260508100100 8 217 4.8 8.0 0.00 0.38 0.00 86 1013.3
20260508095815 8 217 4.8 8.0 0.00 0.38 0.00 86 1013.4
20260508095052 8 217 3.2 8.0 0.00 0.38 0.00 86 1013.4
20260508094537 8 232 3.2 11.3 0.00 0.38 0.00 86 1013.5
20260508094031 8 241 3.2 11.3 0.00 0.38 0.00 86 1013.5
20260508093525 8 252 4.8 11.3 0.00 0.38 0.00 86 1013.5
20260508093019 8 229 4.8 11.3 0.00 0.38 0.00 86 1013.6
20260508092513 8 226 4.8 8.0 0.00 0.38 0.00 86 1013.6
20260508092007 8 237 4.8 12.9 0.00 0.38 0.00 87 1013.7
20260508091501 8 253 6.4 12.9 0.00 0.38 0.00 87 1013.6
20260508090955 8 245 4.8 9.7 0.00 0.38 0.00 87 1013.6
20260508090449 7 301 3.2 8.0 0.00 0.38 0.00 87 1013.7
20260508090203 7 242 3.2 9.7 0.00 0.38 0.00 87 1013.6
20260508085442 7 244 4.8 11.3 0.00 0.38 0.00 87 1013.6
20260508084942 7 218 4.8 11.3 0.00 0.38 0.00 87 1013.6
20260508084442 7 224 4.8 9.7 0.00 0.38 0.00 87 1013.6
20260508083940 7 230 4.8 11.3 0.00 0.38 0.00 87 1013.6
20260508083707 7 219 4.8 11.3 0.00 0.38 0.00 87 1013.6
20260508082939 7 205 4.8 12.9 0.00 0.38 0.00 87 1013.6
20260508082439 7 221 6.4 12.9 0.00 0.38 0.00 87 1013.6
20260508081939 7 249 4.8 9.7 0.00 0.38 0.00 88 1013.6
20260508081438 7 222 4.8 9.7 0.00 0.38 0.00 88 1013.6
20260508080940 7 240 4.8 11.3 0.00 0.38 0.00 88 1013.7
20260508080439 7 234 4.8 11.3 0.00 0.38 0.00 88 1013.6
20260508075940 7 216 6.4 11.3 0.00 0.38 0.00 88 1013.7
20260508075438 7 243 6.4 11.3 0.00 0.38 0.00 89 1013.6
20260508075416 7 225 6.4 12.9 0.00 0.38 0.00 89 1013.6
20260508074433 7 217 6.4 12.9 0.00 0.38 0.00 89 1013.6
20260508073932 7 215 6.4 11.3 0.00 0.38 0.00 89 1013.6
20260508073430 6 241 6.4 11.3 0.00 0.38 0.00 90 1013.6
20260508072933 6 221 6.4 9.7 0.00 0.38 0.00 90 1013.6
20260508072428 6 207 6.4 9.7 0.00 0.38 0.00 90 1013.5
20260508071928 6 213 6.4 11.3 0.00 0.38 0.00 90 1013.5
20260508071429 6 211 6.4 11.3 0.00 0.38 0.00 90 1013.5
20260508070928 6 214 6.4 11.3 0.00 0.38 0.00 90 1013.5
20260508070427 6 211 6.4 11.3 0.00 0.38 0.00 90 1013.6
20260508065927 6 219 6.4 9.7 0.00 0.38 0.00 90 1013.6
20260508065429 6 216 6.4 9.7 0.00 0.38 0.00 90 1013.6
20260508064927 6 209 4.8 8.0 0.00 0.38 0.00 90 1013.6
20260508064429 6 216 4.8 8.0 0.00 0.38 0.00 91 1013.6
20260508063928 6 213 4.8 8.0 0.00 0.38 0.00 91 1013.7
20260508063427 6 207 4.8 8.0 0.00 0.38 0.00 90 1013.7
20260508062928 6 209 6.4 8.0 0.00 0.38 0.00 91 1013.8
20260508062428 6 194 6.4 9.7 0.00 0.38 0.00 91 1013.8
20260508061927 6 201 6.4 9.7 0.00 0.38 0.00 91 1013.8
20260508061650 6 202 4.8 9.7 0.00 0.38 0.00 91 1013.9
20260508060926 6 200 4.8 6.4 0.00 0.38 0.00 91 1013.8
20260508060428 6 202 4.8 6.4 0.00 0.38 0.00 91 1013.9
20260508055922 6 205 4.8 6.4 0.00 0.38 0.00 91 1013.9
20260508055416 6 205 4.8 8.0 0.00 0.38 0.00 91 1013.9
20260508054910 6 206 6.4 9.7 0.00 0.38 0.00 91 1014.0
20260508054410 6 196 4.8 9.7 0.00 0.38 0.00 91 1014.1
20260508053907 6 202 4.8 8.0 0.00 0.38 0.00 91 1014.1
20260508053405 6 202 4.8 8.0 0.00 0.38 0.00 91 1014.1
20260508052903 6 204 4.8 8.0 0.00 0.38 0.00 91 1014.1
20260508052402 6 189 3.2 6.4 0.00 0.38 0.00 91 1014.1
20260508052129 6 181 3.2 6.4 0.00 0.38 0.00 91 1014.1
20260508051627 6 185 3.2 6.4 0.00 0.38 0.00 91 1014.1
20260508050904 6 168 3.2 6.4 0.00 0.38 0.00 91 1014.2
20260508050402 6 185 3.2 8.0 0.00 0.38 0.00 91 1014.1
20260508045904 6 195 3.2 8.0 0.00 0.38 0.00 91 1014.2
20260508045404 6 190 4.8 6.4 0.00 0.38 0.00 91 1014.1
20260508044859 6 182 3.2 6.4 0.00 0.38 0.00 91 1014.2
20260508044358 6 190 1.6 4.8 0.00 0.38 0.00 90 1014.2
20260508044118 6 190 1.6 4.8 0.00 0.38 0.00 90 1014.2
20260508043359 6 190 3.2 6.4 0.00 0.38 0.00 90 1014.1
20260508042858 6 190 1.6 6.4 0.00 0.38 0.00 90 1014.1
20260508042358 6 188 1.6 4.8 0.00 0.38 0.00 90 1014.1
20260508041858 6 189 1.6 4.8 0.00 0.38 0.00 90 1014.1
20260508041358 6 191 1.6 3.2 0.00 0.38 0.00 90 1014.1
20260508041121 6 191 3.2 4.8 0.00 0.38 0.00 90 1014.1
20260508040358 6 191 3.2 4.8 0.00 0.38 0.00 90 1014.1
20260508035859 6 191 3.2 6.4 0.00 0.38 0.38 90 1014.1
20260508035357 6 191 3.2 6.4 0.00 0.38 0.38 90 1014.2
20260508034857 6 184 1.6 6.4 0.00 0.38 0.38 90 1014.1
20260508034617 6 176 1.6 4.8 0.00 0.38 0.38 90 1014.1
20260508033857 6 176 1.6 4.8 0.00 0.38 0.38 89 1014.1
20260508033357 7 176 1.6 3.2 0.00 0.38 0.38 89 1014.2
20260508032857 7 176 1.6 4.8 0.00 0.38 0.38 89 1014.2
20260508032619 7 176 1.6 4.8 0.00 0.38 0.38 89 1014.3
20260508032114 7 176 1.6 4.8 0.00 0.38 0.38 90 1014.3
20260508031615 7 173 1.6 4.8 0.00 0.38 0.38 90 1014.4
20260508030855 7 175 1.6 4.8 0.00 0.38 0.38 89 1014.4
20260508030615 7 175 1.6 4.8 0.05 0.38 0.38 89 1014.4
20260508030116 7 174 3.2 4.8 0.10 0.38 0.38 89 1014.4
20260508025352 7 173 3.2 6.4 0.18 0.38 0.38 89 1014.5
20260508025345 7 173 3.2 6.4 0.23 0.38 0.38 89 1014.5
20260508024610 7 184 3.2 6.4 0.28 0.38 0.38 89 1014.3